This is the latest recevied weather packets stored in our database for station/object KN6CW-3. If no packets are shown the sender has not sent any weather packets the latest 10 day(s).
| Time | Temp. | Humidity | Pressure | Rain* | Wind** | Luminosity | Snow |
|---|---|---|---|---|---|---|---|
| 1777857121 | 9.44° C | 48% | 1013.3 hPa | 0 mm | - | 0 W/m² | - |
| 1777856821 | 9.44° C | 47% | 1013.2 hPa | 0 mm | - | 0 W/m² | - |
| 1777856521 | 10° C | 47% | 1013.2 hPa | 0 mm | - | 0 W/m² | - |
| 1777856220 | 10° C | 47% | 1013.1 hPa | 0 mm | - | 0 W/m² | - |
| 1777855922 | 10° C | 47% | 1013.1 hPa | 0 mm | - | 0 W/m² | - |
| 1777855620 | 10° C | 46% | 1013.1 hPa | 0 mm | - | 0 W/m² | - |
| 1777855319 | 10° C | 46% | 1013 hPa | 0 mm | - | 0 W/m² | - |
| 1777855019 | 10° C | 45% | 1012.9 hPa | 0 mm | - | 0 W/m² | - |
| 1777854719 | 10° C | 45% | 1012.9 hPa | 0 mm | - | 0 W/m² | - |
| 1777854418 | 10° C | 46% | 1012.8 hPa | 0 mm | - | 0 W/m² | - |
| 1777854120 | 10° C | 45% | 1012.7 hPa | 0 mm | - | 0 W/m² | - |
| 1777853818 | 10° C | 45% | 1012.7 hPa | 0 mm | - | 0 W/m² | - |
| 1777853518 | 10° C | 45% | 1012.7 hPa | 0 mm | - | 0 W/m² | - |
| 1777853217 | 10.56° C | 44% | 1012.8 hPa | 0 mm | - | 0 W/m² | - |
| 1777852917 | 10.56° C | 44% | 1012.7 hPa | 0 mm | - | 0 W/m² | - |
| 1777852617 | 10.56° C | 44% | 1012.7 hPa | 0 mm | - | 7 W/m² | - |
| 1777852016 | 10.56° C | 44% | 1012.5 hPa | 0 mm | - | 11 W/m² | - |
| 1777851718 | 11.11° C | 43% | 1012.5 hPa | 0 mm | - | 12 W/m² | - |
| 1777851416 | 11.11° C | 43% | 1012.5 hPa | 0 mm | - | 14 W/m² | - |
| 1777851115 | 11.11° C | 43% | 1012.4 hPa | 0 mm | - | 18 W/m² | - |
| 1777850815 | 11.11° C | 42% | 1012.4 hPa | 0 mm | - | 33 W/m² | - |
| 1777850517 | 11.11° C | 42% | 1012.3 hPa | 0 mm | - | 21 W/m² | - |
| 1777850214 | 11.11° C | 42% | 1012.3 hPa | 0 mm | - | 26 W/m² | - |
| 1777849914 | 11.11° C | 42% | 1012.3 hPa | 0 mm | - | 35 W/m² | - |
| 1777849614 | 11.67° C | 43% | 1012.4 hPa | 0 mm | - | 35 W/m² | - |
* Rain latest hour (hover to see other rain measurements)
** Current wind speed in m/s (hover to see current wind gust speed)